Weather reports worldwide

Advertisment
Pembrey Sands, United Kingdom (3605): temperature & dewpoint: 18.03.2019 16:00:00 - 24.03.2019 16:00:00 (GMT)Pembrey Sands, United Kingdom (3605): wind speed & gusts: 18.03.2019 16:00:00 - 24.03.2019 16:00:00 (GMT)Pembrey Sands, United Kingdom (3605): wind direction: 18.03.2019 16:00:00 - 24.03.2019 16:00:00 (GMT)Pembrey Sands, United Kingdom (3605): reduced air pressure: 18.03.2019 16:00:00 - 24.03.2019 16:00:00 (GMT)Pembrey Sands, United Kingdom (3605): visibility: 18.03.2019 16:00:00 - 24.03.2019 16:00:00 (GMT)Pembrey Sands, United Kingdom (3605): precipitation: 18.03.2019 16:00:00 - 24.03.2019 16:00:00 (GMT)
Date & Time tt [°C] td [°C] ff [km/h] ff [kn] fx [km/h] fx [kn] dd ppp [hPa] vv [km] rr [mm]
24.03.2019 16:00:00 10,7 1,7 24 13 - - NW 1032,6 75 0,0
24.03.2019 15:00:00 11,1 2,1 29 16 - - NW 1032,8 75 0,0
24.03.2019 14:00:00 11,1 1,7 24 13 - - NW 1032,9 75 0,0
24.03.2019 13:00:00 11,1 1,8 28 15 - - NW 1033,4 75 0,0
24.03.2019 12:00:00 10,4 0,2 22 12 - - NNW 1033,6 65 0,0
24.03.2019 11:00:00 10,1 1,4 21 11 - - NW 1033,8 50 0,0
24.03.2019 10:00:00 9,5 3,7 18 10 - - NW 1034,0 29 0,0
24.03.2019 09:00:00 7,9 3,9 8 4 - - WNW 1033,7 17 0,0
24.03.2019 08:00:00 6,9 4,1 9 5 - - NNW 1033,5 35 0,0
24.03.2019 07:00:00 3,2 1,9 5 3 - - N 1033,3 25 0,0
24.03.2019 06:00:00 4,6 3,0 9 5 - - NNE 1032,8 27 0,0
24.03.2019 05:00:00 4,7 2,4 8 4 - - NNE 1032,3 29 0,0
24.03.2019 04:00:00 7,2 3,7 13 7 - - N 1032,6 35 0,0
24.03.2019 03:00:00 6,9 3,6 5 3 - - SSE 1032,0 29 0,0
24.03.2019 02:00:00 7,0 3,6 8 4 - - E 1032,1 28 0,0
24.03.2019 01:00:00 7,3 4,2 11 6 - - ENE 1032,7 24 0,0
24.03.2019 00:00:00 7,6 4,4 8 4 - - E 1033,7 26 0,0
23.03.2019 23:00:00 7,7 4,7 13 7 - - N 1033,9 29 0,0
23.03.2019 22:00:00 7,7 4,3 11 6 - - N 1033,9 28 0,0
23.03.2019 21:00:00 7,8 3,6 9 5 - - NNE 1033,4 30 0,0
23.03.2019 20:00:00 7,9 3,5 15 8 - - NNE 1033,0 30 0,0
23.03.2019 19:00:00 8,3 3,6 15 8 - - NNE 1032,8 30 0,0
23.03.2019 18:00:00 9,3 4,6 16 9 - - N 1032,8 29 0,0
23.03.2019 17:00:00 10,6 3,9 13 7 - - NE 1032,6 45 0,0
23.03.2019 16:00:00 10,7 4,3 16 9 - - NE 1032,6 40 0,0
23.03.2019 15:00:00 10,8 4,4 16 9 - - NE 1032,8 40 0,0
23.03.2019 14:00:00 10,9 4,7 16 9 - - NE 1033,2 35 0,0
23.03.2019 13:00:00 10,5 3,9 18 10 - - NE 1033,5 40 0,0
23.03.2019 12:00:00 9,9 4,3 16 9 - - NE 1033,5 30 0,0
23.03.2019 11:00:00 9,4 3,9 18 10 - - NE 1033,6 28 0,0
23.03.2019 10:00:00 8,4 4,1 21 11 - - NNE 1033,7 23 0,0
23.03.2019 09:00:00 7,7 4,6 22 12 - - NNE 1033,6 19 0,0
23.03.2019 08:00:00 7,2 4,5 16 9 - - N 1033,1 20 0,0
23.03.2019 07:00:00 6,9 4,7 13 7 - - NNE 1032,5 21 0,0
23.03.2019 06:00:00 6,3 4,4 11 6 - - N 1031,9 21 0,0
23.03.2019 05:00:00 6,7 4,8 9 5 - - NNE 1031,3 23 0,0
23.03.2019 04:00:00 7,1 5,0 9 5 - - N 1030,9 23 0,0
23.03.2019 03:00:00 7,2 5,0 13 7 - - N 1030,3 24 0,0
23.03.2019 02:00:00 7,8 5,0 13 7 - - NNW 1030,2 27 0,0
23.03.2019 01:00:00 8,4 5,7 16 9 - - N 1029,7 29 0,0
23.03.2019 00:00:00 8,8 7,7 15 8 - - NNW 1028,9 40 0,0
22.03.2019 23:00:00 8,9 7,6 11 6 - - N 1028,6 40 0,0
22.03.2019 22:00:00 8,7 8,2 22 12 - - NNW 1028,6 40 0,0
22.03.2019 21:00:00 9,5 9,1 22 12 - - SW 1028,0 1,4 0,2
22.03.2019 20:00:00 9,5 8,9 22 12 - - WSW 1027,9 0,8 0,2
22.03.2019 19:00:00 9,7 8,8 24 13 - - SW 1027,5 7 0,0
22.03.2019 18:00:00 9,9 8,9 28 15 - - SSW 1027,0 8 0,0
22.03.2019 17:00:00 10,0 9,0 28 15 - - SSW 1026,8 10 0,0
22.03.2019 16:00:00 10,2 9,0 26 14 - - SSW 1026,9 12 0,0
22.03.2019 15:00:00 10,3 8,9 29 16 - - SSW 1026,8 14 0,0
22.03.2019 14:00:00 10,3 8,9 29 16 - - SSW 1026,7 15 0,0
22.03.2019 13:00:00 10,4 9,0 34 18 - - SSW 1026,9 18 0,0
22.03.2019 12:00:00 10,3 8,8 29 16 - - SSW 1027,1 18 0,0
22.03.2019 11:00:00 10,2 8,7 28 15 - - SSW 1027,2 18 0,0
22.03.2019 10:00:00 10,0 8,4 29 16 - - S 1027,3 16 0,0
22.03.2019 09:00:00 9,9 8,1 31 17 - - SSW 1027,5 15 0,0
22.03.2019 08:00:00 9,6 7,9 29 16 - - S 1027,4 14 0,0
22.03.2019 07:00:00 9,4 7,8 26 14 - - S 1027,5 15 0,0
22.03.2019 06:00:00 9,0 8,0 26 14 - - S 1027,5 21 0,0
22.03.2019 05:00:00 8,8 8,5 34 18 50 27 S 1027,6 19 0,0
22.03.2019 04:00:00 9,3 9,0 28 15 - - SSW 1027,8 3,1 0,0
22.03.2019 03:00:00 9,5 9,3 26 14 - - S 1028,5 5 0,0
22.03.2019 02:00:00 9,5 9,2 13 7 - - SSE 1028,5 14 0,0
22.03.2019 01:00:00 9,4 9,2 9 5 - - SE 1028,9 11 0,0
22.03.2019 00:00:00 8,8 7,7 15 8 - - NNW 1028,9 40 0,0
21.03.2019 23:00:00 9,6 9,3 5 3 - - SSE 1030,8 0,4 0,0
21.03.2019 22:00:00 9,6 9,3 11 6 - - S 1030,9 0,3 0,0
21.03.2019 21:00:00 9,7 9,2 13 7 - - S 1031,1 0,2 0,0
21.03.2019 20:00:00 9,8 9,1 13 7 - - S 1031,7 20 0,0
21.03.2019 19:00:00 9,9 9,0 11 6 - - S 1031,9 23 0,0
21.03.2019 18:00:00 9,7 8,6 9 5 - - S 1032,1 50 0,0
21.03.2019 17:00:00 10,5 8,8 13 7 - - S 1032,4 75 0,0
21.03.2019 16:00:00 11,0 9,1 9 5 - - SSW 1032,5 20 0,0
21.03.2019 15:00:00 10,6 8,9 11 6 - - S 1033,0 27 0,0
21.03.2019 14:00:00 10,0 9,0 13 7 - - S 1033,7 18 0,0
21.03.2019 13:00:00 9,5 9,0 11 6 - - S 1034,3 30 0,0
21.03.2019 12:00:00 9,3 9,0 11 6 - - SSW 1034,7 40 0,0
21.03.2019 11:00:00 9,2 9,0 9 5 - - SW 1034,7 16 0,0
21.03.2019 10:00:00 - - - - - - - - - 0,0
21.03.2019 09:00:00 - - - - - - - - - 0,0
21.03.2019 08:00:00 - - - - - - - - - 0,2
21.03.2019 07:00:00 - - - - - - - - - -
21.03.2019 06:00:00 - - - - - - - - - 0,0
21.03.2019 05:00:00 - - - - - - - - - 0,0
21.03.2019 04:00:00 - - - - - - - - - 0,0
21.03.2019 03:00:00 - - - - - - - - - 0,2
21.03.2019 02:00:00 9,1 8,9 11 6 - - S 1033,4 0,2 0,0
21.03.2019 01:00:00 8,9 8,8 8 4 - - S 1033,6 2,0 0,2
21.03.2019 00:00:00 8,8 8,6 15 8 - - S 1033,9 2,7 0,2
20.03.2019 23:00:00 8,7 8,5 15 8 - - S 1033,9 0,7 0,4
20.03.2019 22:00:00 8,5 8,3 15 8 - - S 1033,8 0,6 0,0
20.03.2019 21:00:00 8,3 8,0 16 9 - - S 1033,9 2,2 0,0
20.03.2019 20:00:00 8,3 8,0 16 9 - - SSW 1033,5 10 0,2
20.03.2019 19:00:00 8,5 8,1 15 8 - - SSW 1033,4 1,5 0,0
20.03.2019 18:00:00 8,7 8,3 15 8 - - SSW 1033,0 2,2 0,0
20.03.2019 17:00:00 8,8 8,3 16 9 - - SSW 1032,8 2,5 0,0
20.03.2019 16:00:00 8,8 8,2 13 7 - - SSW 1032,8 3,3 0,0
20.03.2019 15:00:00 9,0 8,4 18 10 - - SW 1033,0 13 0,0
20.03.2019 14:00:00 9,4 9,1 22 12 - - SSW 1033,3 75 0,0
20.03.2019 13:00:00 8,7 8,3 16 9 - - SW 1033,5 1,6 0,0
20.03.2019 12:00:00 8,5 8,3 18 10 - - SSW 1033,4 8 0,0
20.03.2019 11:00:00 8,6 8,4 16 9 - - SSW 1033,3 1,7 0,0
20.03.2019 10:00:00 8,7 8,6 13 7 - - S 1033,2 11 0,0
20.03.2019 09:00:00 8,1 7,9 13 7 - - S 1032,8 75 0,0
20.03.2019 08:00:00 7,9 7,7 13 7 - - SSW 1032,4 2,3 0,0
20.03.2019 07:00:00 7,9 7,8 9 5 - - W 1031,8 1,3 0,2
20.03.2019 06:00:00 7,9 7,8 9 5 - - WSW 1031,3 3,1 0,0
20.03.2019 05:00:00 8,2 8,0 15 8 - - SW 1031,1 2,3 0,0
20.03.2019 04:00:00 8,3 8,2 16 9 - - WSW 1030,6 10 0,0
20.03.2019 03:00:00 8,7 8,5 16 9 - - WSW 1030,8 1,6 0,0
20.03.2019 02:00:00 8,9 8,7 11 6 - - SSW 1030,7 3,6 0,0
20.03.2019 01:00:00 9,1 9,0 13 7 - - SSW 1030,6 2,4 0,2
20.03.2019 00:00:00 9,2 9,0 11 6 - - SW 1030,7 0,5 0,0
19.03.2019 23:00:00 9,2 9,1 15 8 - - WSW 1030,7 1,3 0,0
19.03.2019 22:00:00 9,2 9,0 22 12 - - SSW 1029,8 0,7 0,0
19.03.2019 21:00:00 9,3 9,0 22 12 - - SSW 1029,6 1,8 0,2
19.03.2019 20:00:00 9,2 8,9 22 12 - - SSW 1029,3 0,6 0,0
19.03.2019 19:00:00 9,1 8,7 21 11 - - SSW 1029,1 2,5 0,0
19.03.2019 18:00:00 9,2 8,7 21 11 - - SSW 1029,0 1,0 0,2
19.03.2019 17:00:00 9,4 8,6 22 12 - - SSW 1028,5 1,2 0,0
19.03.2019 16:00:00 9,3 8,6 22 12 - - SSW 1027,8 17 0,0
19.03.2019 15:00:00 9,4 8,6 24 13 - - SSW 1027,7 2,1 0,0
19.03.2019 14:00:00 9,5 8,4 24 13 - - SW 1028,3 7 0,0
19.03.2019 13:00:00 10,0 8,6 24 13 - - SW 1028,6 7 0,0
19.03.2019 12:00:00 10,6 8,2 26 14 - - WSW 1028,3 30 0,0
19.03.2019 11:00:00 10,2 8,7 21 11 - - SW - - 0,0
19.03.2019 10:00:00 10,0 8,8 8 4 - - SW - - 0,0
19.03.2019 09:00:00 9,1 8,3 8 4 - - SW - - 0,0
19.03.2019 08:00:00 8,7 8,0 4 2 - - W - - 0,0
19.03.2019 07:00:00 8,6 7,9 16 9 - - W - - 0,0
19.03.2019 06:00:00 8,6 7,9 15 8 - - W - - 0,0
19.03.2019 05:00:00 8,6 8,0 13 7 - - W - - 0,0
19.03.2019 04:00:00 8,4 7,8 9 5 - - W - - 0,0
19.03.2019 03:00:00 8,4 7,8 13 7 - - SW - - 0,0
19.03.2019 02:00:00 6,8 6,1 4 2 - - WSW - - 0,0
19.03.2019 01:00:00 8,0 7,3 9 5 - - W - - 0,0
19.03.2019 00:00:00 9,2 9,0 11 6 - - SW 1030,7 0,5 0,0
18.03.2019 23:00:00 7,0 5,7 8 4 - - W - - 0,0
18.03.2019 22:00:00 8,7 7,3 18 10 - - WNW - - 0,0
18.03.2019 21:00:00 9,0 7,9 11 6 - - SW - - 0,0
18.03.2019 20:00:00 8,9 7,7 9 5 - - WSW 1024,0 8 0,0
18.03.2019 19:00:00 9,2 7,4 18 10 - - W 1023,6 10 0,0
18.03.2019 18:00:00 9,6 7,3 21 11 - - WNW 1023,1 10 0,0
18.03.2019 17:00:00 9,2 7,5 21 11 - - W 1022,5 11 0,0
18.03.2019 16:00:00 9,2 7,5 24 13 - - W 1022,2 18 0,0

tt = temperature
td = dewpoint
ff = wind speed
fx = gusts
dd = wind direction
ppp = reduced air pressure
vv = visibility
rr = precipitation

Next stations